Location: Leiter
(44.7178°N, 106.2687°W)
Time: 04:18:10
(UTC+00:00)

CUBESAT XI-V - Pass Details

Date: 04 July 2022
Orbit: 668 x 690 km, 98.1° (Epoch: 13 August)

Event Time Altitude Azimuth Distance (km) Brightness Sun altitude
Exits shadow 08:02:29 18° 122° (ESE) 1,652 ? -21.3°
Maximum altitude 08:05:18 34° 68° (ENE) 1,114 ? -21.2°
Drops below altitude 10° 08:09:25 10° 4° (N) 2,107 ? -21.0°
Sets 08:11:49 0° 356° (N) 3,024 ? -20.9°
